Terminal Aerodrome Forecast
Issued by NWS

Home | Current Version | Previous Version | Text Only | Print | Product List | Glossary On
Versions: 1 2 3 4 5 6 7 8 9 10 11 12 13 14 15
000
FTUS45 KLKN 180500 RRA
TAFWMC
TAF
KWMC 180541Z 1806/1906 30008KT P6SM VCSH SCT050 OVC110
      TEMPO 1806/1808 -SHRA BKN070
     FM181200 29008KT P6SM VCSH BKN040 OVC060
     FM182000 28007KT P6SM SCT050=

USA.gov is the U.S. government's official web portal to all federal, state and local government web resources and services.